QPF
0.07 0.15 0.16 0.26 0.14 0.11 0.09 0.01 0.00 0.00 0.00 0.00 0.00 0.00 0.00 0.00 0.00 0.00 0.00 0.00 0.00 0.00 0.00 0.00 0.00 0.00 0.00 0.00 0.00 0.00 0.00 0.00
0.00 0.02 0.06 0.09 0.15 0.12 0.03 0.00 0.00 0.00 0.00 0.00 0.00 0.00 0.00 0.00 0.00 0.00 0.00 0.00 0.00 0.00 0.00 0.00 0.00 0.00 0.00 0.00 0.00 0.00 0.00 0.00
0.01 0.00 0.00 0.01 0.04 0.10 0.04 0.00 0.00 0.00 0.00 0.00 0.00 0.00 0.00 0.00 0.00 0.00 0.00 0.00 0.00 0.00 0.00 0.00 0.00 0.00 0.00 0.00 0.00 0.00 0.00 0.00
0.02 0.00 0.00 0.00 0.00 0.04 0.03 0.00 0.00 0.00 0.00 0.00 0.00 0.00 0.00 0.00 0.00 0.00 0.00 0.00 0.00 0.00 0.00 0.00 0.00 0.00 0.00 0.00 0.00 0.00 0.00 0.00
0.02 0.00 0.00 0.00 0.00 0.00 0.00 0.00 0.00 0.00 0.00 0.00 0.00 0.00 0.00 0.00 0.00 0.00 0.00 0.00 0.00 0.00 0.00 0.00 0.00 0.00 0.00 0.00 0.00 0.00 0.00 0.00
0.00 0.00 0.00 0.00 0.00 0.00 0.00 0.00 0.00 0.00 0.00 0.00 0.00 0.00 0.00 0.00 0.00 0.00 0.00 0.00 0.00 0.00 0.00 0.00 0.00 0.00 0.00 0.00 0.00 0.00 0.00 0.00
0.01 0.01 0.01 0.00 0.00 0.00 0.00 0.00 0.00 0.00 0.00 0.00 0.00 0.00 0.00 0.00 0.00 0.00 0.00 0.00 0.00 0.00 0.00 0.00 0.00 0.00 0.00 0.00 0.00 0.00 0.00 0.00
0.00 0.00 0.00 0.00 0.00 0.00 0.00 0.00 0.00 0.00 0.00 0.00 0.00 0.01 0.00 0.00 0.00 0.00 0.00 0.00 0.00 0.00 0.00 0.00 0.00 0.00 0.00 0.00 0.00 0.00 0.00 0.00
0.00 0.00 0.00 0.00 0.00 0.00 0.00 0.00 0.00 0.00 0.00 0.00 0.00 0.00 0.00 0.00 0.00 0.00 0.00 0.00 0.00 0.00 0.00 0.00 0.00 0.00 0.00 0.00 0.00 0.00 0.00 0.00
0.00 0.00 0.00 0.00 0.00 0.00 0.00 0.00 0.00 0.00 0.00 0.00 0.00 0.00 0.00 0.00 0.00 0.00 0.00 0.00 0.00 0.00 0.00 0.00 0.00 0.00 0.00 0.00 0.00 0.00 0.00 0.00
0.00 0.00 0.00 0.00 0.00 0.00 0.00 0.00 0.00 0.00 0.00 0.00 0.00 0.00 0.00 0.01 0.00 0.00 0.00 0.00 0.00 0.00 0.00 0.00 0.00 0.00 0.00 0.00 0.00 0.00 0.00 0.00
0.00 0.00 0.00 0.00 0.00 0.00 0.00 0.00 0.00 0.00 0.00 0.00 0.00 0.00 0.03 0.03 0.01 0.00 0.00 0.00 0.00 0.00 0.00 0.00 0.00 0.00 0.00 0.00 0.00 0.00 0.00 0.00
0.00 0.00 0.00 0.00 0.00 0.00 0.00 0.00 0.00 0.00 0.00 0.00 0.01 0.01 0.02 0.03 0.01 0.00 0.00 0.00 0.00 0.00 0.00 0.00 0.00 0.00 0.00 0.00 0.00 0.00 0.00 0.00
0.00 0.00 0.00 0.00 0.00 0.00 0.00 0.00 0.00 0.00 0.00 0.00 0.00 0.00 0.01 0.04 0.01 0.00 0.00 0.00 0.00 0.00 0.00 0.00 0.00 0.00 0.00 0.00 0.00 0.00 0.00 0.00
0.00 0.00 0.00 0.00 0.00 0.00 0.00 0.00 0.00 0.00 0.00 0.00 0.01 0.02 0.04 0.04 0.05 0.01 0.01 0.00 0.00 0.00 0.00 0.00 0.00 0.00 0.00 0.00 0.00 0.00 0.00 0.00
0.00 0.00 0.00 0.00 0.00 0.00 0.00 0.00 0.00 0.00 0.00 0.00 0.01 0.00 0.00 0.00 0.01 0.00 0.00 0.00 0.00 0.00 0.00 0.00 0.00 0.00 0.00 0.00 0.00 0.00 0.00 0.00
0.00 0.00 0.00 0.00 0.00 0.00 0.00 0.00 0.00 0.00 0.00 0.00 0.00 0.00 0.00 0.01 0.02 0.00 0.00 0.00 0.01 0.00 0.00 0.00 0.00 0.00 0.00 0.00 0.00 0.00 0.00 0.00
0.00 0.00 0.00 0.00 0.00 0.00 0.03 0.05 0.00 0.00 0.00 0.00 0.00 0.03 0.01 0.02 0.01 0.02 0.02 0.01 0.01 0.01 0.00 0.00 0.00 0.00 0.00 0.00 0.00 0.00 0.00 0.00
0.00 0.00 0.00 0.00 0.00 0.08 0.03 0.04 0.02 0.00 0.00 0.00 0.00 0.08 0.11 0.03 0.01 0.01 0.00 0.01 0.01 0.01 0.00 0.00 0.00 0.00 0.00 0.00 0.00 0.00 0.00 0.00
0.00 0.00 0.00 0.00 0.00 0.02 0.06 0.00 0.02 0.01 0.00 0.03 0.03 0.03 0.07 0.12 0.05 0.00 0.00 0.00 0.01 0.01 0.01 0.00 0.00 0.00 0.00 0.00 0.00 0.00 0.00 0.00
MSLP
1011.93 1012.31 1011.81 1012.07 1011.76 1012.75 1013.88 1014.84 1015.46 1015.98 1016.75 1017.29 1017.72 1018.24 1018.85 1019.33 1019.91 1020.39 1021.02 1021.43 1021.76 1022.13 1022.21 1022.31 1022.59 1022.30 1022.39 1022.37 1022.78 1023.26 1023.90 1024.23
1012.59 1013.04 1012.22 1012.43 1011.65 1013.19 1014.33 1015.06 1016.04 1016.51 1017.39 1017.67 1018.16 1018.75 1019.36 1019.89 1020.41 1020.84 1021.48 1021.90 1022.33 1022.36 1022.62 1022.67 1022.51 1022.60 1022.68 1022.87 1023.15 1023.66 1024.21 1024.53
1012.89 1013.16 1013.10 1013.17 1014.17 1014.26 1015.55 1016.23 1016.71 1017.18 1017.96 1018.24 1018.61 1019.26 1019.78 1020.24 1020.82 1021.47 1021.70 1022.43 1022.76 1022.77 1022.98 1022.81 1022.89 1022.98 1023.12 1023.38 1023.71 1024.12 1024.38 1024.73
1013.58 1013.31 1013.62 1014.75 1014.62 1016.00 1016.81 1017.10 1017.36 1017.84 1018.18 1018.71 1019.07 1019.71 1020.16 1020.61 1021.38 1021.69 1022.16 1022.72 1023.03 1023.25 1023.29 1023.38 1023.24 1023.65 1023.73 1023.76 1024.26 1024.49 1024.65 1025.12
1014.22 1014.44 1014.83 1015.04 1015.66 1016.63 1017.20 1017.27 1017.84 1018.15 1018.39 1018.77 1019.30 1020.13 1020.88 1021.17 1021.78 1022.35 1022.61 1023.08 1023.26 1023.65 1023.82 1023.72 1023.77 1024.03 1023.99 1024.11 1024.49 1024.91 1025.06 1025.33
1014.60 1014.60 1015.21 1015.64 1015.87 1016.49 1016.96 1017.79 1018.14 1018.57 1018.69 1018.91 1019.79 1020.21 1020.99 1021.41 1021.97 1022.66 1023.01 1023.33 1023.66 1023.88 1023.92 1024.06 1024.06 1024.03 1024.13 1024.25 1024.71 1025.02 1025.36 1025.68
1015.01 1015.05 1015.91 1016.31 1016.50 1017.08 1017.38 1017.36 1018.14 1018.48 1018.68 1019.17 1019.78 1020.16 1021.01 1021.60 1022.02 1022.56 1023.02 1023.33 1023.68 1023.75 1023.98 1024.11 1024.22 1024.24 1024.40 1024.32 1024.57 1025.10 1025.51 1025.82
1015.36 1015.88 1016.20 1016.55 1016.69 1016.82 1017.00 1017.45 1018.21 1018.37 1018.93 1019.55 1019.91 1020.38 1020.90 1021.22 1022.09 1022.46 1022.93 1023.14 1023.44 1023.68 1023.94 1024.11 1024.56 1024.35 1024.55 1024.70 1025.02 1025.32 1025.73 1025.97
1015.73 1016.00 1016.49 1016.67 1017.40 1017.32 1017.48 1017.63 1018.11 1018.53 1019.10 1019.65 1019.87 1020.06 1020.60 1021.43 1022.03 1022.21 1022.54 1022.85 1023.21 1023.49 1023.88 1024.25 1024.56 1024.53 1024.60 1024.86 1025.02 1025.17 1025.78 1025.86
1015.96 1016.25 1016.69 1017.00 1017.64 1017.25 1017.33 1017.72 1017.79 1018.45 1019.27 1019.17 1019.31 1019.91 1020.70 1021.33 1021.60 1021.96 1022.24 1022.65 1023.02 1023.42 1023.89 1024.47 1024.66 1024.78 1024.87 1025.10 1025.35 1025.41 1025.38 1025.67
1016.36 1016.68 1016.73 1017.15 1017.54 1017.54 1017.67 1018.03 1018.60 1018.51 1018.23 1018.82 1019.40 1020.19 1020.78 1021.09 1021.40 1021.78 1022.22 1022.51 1022.88 1023.22 1023.74 1023.98 1024.49 1024.74 1024.91 1025.25 1025.17 1025.43 1025.26 1025.24
1016.84 1017.07 1017.34 1017.54 1017.98 1018.17 1018.56 1018.67 1018.47 1018.39 1018.70 1019.37 1019.85 1020.17 1020.47 1020.97 1021.23 1021.63 1022.03 1022.48 1022.84 1023.15 1023.54 1023.83 1023.92 1024.27 1024.71 1024.99 1025.08 1025.00 1025.13 1025.35
1016.95 1016.99 1017.20 1017.54 1017.93 1018.44 1018.57 1018.82 1018.77 1018.95 1019.02 1019.07 1019.46 1019.81 1020.04 1020.67 1021.08 1021.51 1021.82 1022.21 1022.46 1022.82 1023.25 1023.57 1023.92 1024.03 1024.82 1025.31 1025.31 1025.12 1025.09 1025.22
1016.32 1016.50 1016.74 1017.16 1017.51 1017.87 1018.13 1018.22 1018.19 1018.19 1018.39 1018.65 1018.90 1019.47 1019.82 1020.33 1020.70 1021.17 1021.55 1021.87 1022.27 1022.50 1022.87 1023.41 1023.67 1023.65 1024.57 1025.20 1025.63 1025.53 1025.17 1024.94
1015.56 1015.73 1016.20 1016.53 1016.98 1017.20 1017.49 1017.60 1017.56 1017.86 1018.14 1018.35 1018.50 1018.88 1019.32 1019.81 1020.36 1020.90 1021.09 1021.29 1021.74 1021.97 1022.22 1022.58 1023.20 1023.70 1023.67 1024.47 1025.61 1025.59 1025.28 1024.85
1014.90 1015.20 1015.54 1015.72 1016.03 1016.46 1016.56 1016.61 1016.94 1017.15 1017.38 1017.75 1017.95 1018.43 1018.83 1019.08 1019.57 1020.10 1020.36 1020.56 1021.03 1021.33 1021.64 1021.92 1022.62 1023.39 1023.98 1023.75 1024.33 1024.83 1025.32 1025.70
1014.12 1014.49 1014.72 1014.80 1015.13 1015.16 1015.56 1015.91 1016.20 1016.48 1016.86 1017.21 1017.65 1017.91 1018.18 1018.56 1018.52 1019.23 1019.86 1020.11 1020.52 1021.03 1021.54 1021.99 1022.02 1022.73 1022.98 1023.41 1023.79 1024.58 1024.78 1025.26
1012.84 1013.07 1013.16 1013.44 1013.86 1014.10 1014.32 1014.96 1015.34 1015.91 1016.31 1016.79 1017.03 1017.44 1017.70 1017.70 1018.00 1018.63 1019.02 1019.50 1019.74 1020.18 1020.76 1021.34 1021.73 1022.19 1023.24 1023.49 1023.73 1024.25 1024.51 1024.88
1011.45 1011.57 1011.64 1012.01 1012.36 1012.72 1013.17 1013.47 1014.17 1014.70 1015.21 1015.88 1016.42 1016.95 1017.21 1017.37 1017.59 1018.37 1018.88 1019.11 1019.60 1020.12 1020.84 1021.29 1021.79 1022.89 1023.09 1024.22 1024.23 1024.36 1024.46 1024.67
1010.06 1010.41 1010.80 1011.17 1011.74 1012.04 1012.55 1012.94 1013.12 1013.34 1013.87 1014.52 1015.07 1015.65 1016.22 1016.87 1017.54 1017.88 1018.42 1018.96 1019.41 1019.98 1020.86 1021.73 1022.41 1022.93 1023.53 1024.03 1024.38 1025.10 1025.11 1025.13
Thickness
5665 5663 5667 5668 5671 5672 5669 5667 5665 5665 5662 5661 5660 5657 5654 5651 5646 5644 5639 5637 5635 5632 5631 5630 5630 5634 5635 5636 5638 5628 5624 5622
5654 5650 5661 5665 5665 5651 5656 5659 5655 5655 5652 5654 5652 5649 5645 5642 5638 5634 5630 5627 5625 5626 5624 5625 5628 5628 5628 5629 5630 5625 5620 5617
5652 5651 5659 5652 5639 5638 5638 5640 5643 5644 5642 5645 5644 5640 5637 5634 5630 5625 5623 5618 5617 5618 5618 5620 5622 5622 5623 5622 5621 5617 5617 5614
5647 5651 5653 5643 5646 5632 5627 5629 5634 5635 5636 5636 5637 5632 5629 5627 5620 5618 5615 5611 5609 5610 5612 5614 5618 5615 5616 5616 5614 5611 5611 5607
5644 5641 5638 5639 5636 5628 5626 5632 5625 5628 5630 5631 5630 5625 5619 5617 5612 5608 5608 5605 5605 5604 5606 5609 5610 5611 5613 5612 5611 5606 5607 5604
5639 5639 5633 5632 5629 5626 5624 5621 5623 5621 5624 5625 5622 5618 5611 5607 5604 5602 5600 5600 5600 5601 5604 5605 5606 5607 5608 5608 5605 5604 5601 5598
5631 5631 5625 5623 5621 5619 5619 5624 5621 5618 5620 5618 5615 5613 5607 5601 5600 5597 5596 5596 5597 5600 5600 5601 5602 5603 5603 5604 5603 5600 5596 5593
5628 5624 5620 5619 5620 5620 5622 5620 5616 5616 5613 5610 5609 5607 5601 5600 5595 5595 5593 5595 5595 5598 5597 5598 5596 5599 5599 5597 5595 5593 5588 5586
5621 5621 5617 5614 5609 5612 5614 5613 5612 5610 5607 5605 5605 5603 5599 5596 5595 5595 5595 5595 5595 5596 5594 5594 5593 5593 5595 5592 5590 5587 5583 5581
5615 5615 5615 5613 5606 5610 5610 5607 5609 5606 5601 5605 5605 5599 5598 5595 5596 5596 5597 5596 5595 5594 5591 5589 5588 5588 5589 5587 5583 5580 5579 5576
5610 5608 5610 5608 5604 5605 5604 5601 5599 5601 5605 5602 5599 5598 5596 5597 5598 5599 5596 5596 5594 5592 5590 5589 5585 5585 5584 5580 5581 5576 5574 5570
5603 5604 5605 5604 5600 5599 5595 5595 5598 5600 5597 5598 5598 5602 5599 5596 5599 5599 5596 5593 5591 5590 5588 5587 5587 5584 5582 5578 5575 5574 5571 5567
5600 5602 5605 5604 5601 5599 5598 5595 5599 5598 5600 5606 5605 5601 5601 5599 5600 5597 5595 5593 5591 5589 5586 5584 5583 5582 5574 5571 5568 5567 5565 5561
5608 5608 5610 5609 5607 5604 5599 5602 5607 5608 5607 5605 5604 5602 5602 5602 5599 5596 5591 5591 5588 5587 5585 5582 5579 5580 5570 5561 5557 5557 5558 5557
5616 5617 5615 5613 5606 5608 5606 5605 5607 5604 5604 5607 5608 5606 5604 5601 5597 5593 5591 5591 5588 5586 5582 5581 5576 5572 5569 5560 5547 5545 5544 5548
5620 5620 5619 5617 5616 5611 5611 5612 5611 5611 5611 5612 5611 5606 5603 5602 5598 5596 5593 5591 5589 5587 5582 5579 5572 5566 5558 5557 5549 5543 5536 5532
5624 5622 5623 5623 5621 5621 5617 5616 5616 5615 5613 5612 5610 5606 5605 5601 5600 5595 5593 5589 5586 5582 5576 5571 5570 5562 5557 5551 5543 5534 5531 5524
5635 5634 5633 5631 5627 5625 5625 5621 5621 5617 5613 5609 5608 5605 5603 5602 5600 5595 5591 5589 5587 5582 5574 5567 5562 5557 5544 5539 5533 5525 5522 5518
5642 5643 5644 5641 5636 5635 5632 5629 5625 5621 5618 5614 5609 5604 5601 5602 5598 5592 5588 5585 5580 5574 5567 5561 5553 5540 5535 5521 5519 5514 5511 5506
5650 5648 5645 5643 5637 5635 5633 5631 5630 5628 5624 5621 5617 5611 5607 5599 5592 5589 5584 5577 5572 5565 5557 5547 5539 5532 5520 5514 5510 5499 5495 5490